Find Starlink 33930

NORAD ID: 63776 Int'l Des: 2025-091 Owner: SPXS Country: US Constellation: starlink operational
LEOCIRCULAR

当前视图

正在加载3D地球...

About Starlink 33930

Starlink 33930 (NORAD 63776) is a starlink constellation satellite (v2 mini) launched May 2, 2025 by SPXS of US. It operates in LEO, CIRCULAR orbit with a mass of 575.00 kg.

关于 Starlink 33930

正在加载描述...

即将过境

Passes for default location (London). Set your location on the main map for personalized predictions.

高度历史

Loading altitude history...

两行轨道根数

1 63776U 25091B 26171.05210717 .00016663 00000-0 61333-3 0 9997
2 63776 43.0021 194.7547 0001639 282.6686 77.3983 15.27599174 64552
Epoch: Jun 20, 2026 • Age: 12 hours

当前状态

高度 492.6 km
速度 7.62 km/s
星下点 -36.09°S, 45.01°W
发射日期 May 2, 2025
运行时间 1.1 years
类型 internet

技术详情

分类 Payload
质量 575.00 kg
干质量 530.00 kg
总质量 575.00 kg
长度 0.30 m
直径 4.10 m
跨度 29.00 m
形状 Box + pan
制造商 SPXS
平台类型 Starlink V2MO
阶段状态 In Orbit
所有者/国家 SPXS/US

Most Searched